Home   Weather   Battambang   Past weeks

Flag for Cambodia Past Weather in Battambang, Cambodia — Yesterday and Last 2 Weeks

Now
77 °F

Passing clouds.


Feels Like: 79 °F
Forecast: 74 / 92 °F
Wind: 3 mph from East

Location: Siemreap

Current Time: Jan 18, 2017 at 4:34:38 am

Latest Report: Jan 18, 2017 at 2:30 am


Visibility: 5 mi

Pressure: 29.89 "Hg

Humidity: 79%

Dew Point: 70 °F

Location of BattambangLocation

Past Weather in Battambang — Graph

°F

Battambang Temperature Yesterday

Maximum temperature yesterday: 90 °F (at 4:00 pm)
Minimum temperature yesterday: 75 °F (at 2:30 am)
Average temperature yesterday: 83 °F

High & Low Weather Summary for the Past Weeks

 TemperatureHumidityPressure
High91 °F (Jan 13, 1:30 pm)100% (Jan 3, 6:30 am)29.92 "Hg (Jan 3, 6:30 am)
Low73 °F (Jan 3, 6:30 am)46% (Jan 4, 1:00 pm)29.65 "Hg (Jan 7, 3:00 pm)
Average82 °F76%29.78 "Hg
* Reported Jan 3 2:00 am — Jan 18 2:30 am, Battambang, Weather by CustomWeather, © 2017

Note: Actual official high and low records may vary slightly from our data, if they occured in-between our weather recording intervals... More about our weather records

Advertising

Battambang Weather History for the Previous 24 Hours

Scroll right to see more
 ConditionsComfort  
Time TempWeatherWind HumidityBarometerVisibility
2:30 am
Wed, Jan 18
77 °FPassing clouds.3 mph79%29.89 "Hg5 mi
2:00 am77 °FPassing clouds.5 mph83%29.89 "Hg5 mi
1:30 am79 °FPassing clouds.3 mph79%29.89 "Hg5 mi
1:00 am77 °FPassing clouds.5 mph100%29.89 "Hg5 mi
12:30 am79 °FPassing clouds.No wind100%29.89 "Hg5 mi
12:00 am79 °FPassing clouds.No wind100%29.89 "Hg5 mi
11:30 pm
Tue, Jan 17
79 °FPassing clouds.1 mph94%29.89 "Hg5 mi
11:00 pm79 °FPassing clouds.No wind94%29.89 "Hg5 mi
10:30 pm81 °FPassing clouds.1 mph89%29.89 "Hg5 mi
9:30 pm81 °FPassing clouds.No wind89%29.89 "Hg5 mi
9:00 pm81 °FPassing clouds.No wind89%29.89 "Hg5 mi
8:30 pm81 °FPassing clouds.No wind89%29.89 "HgN/A
8:00 pm81 °FPassing clouds.No wind89%29.86 "HgN/A
7:30 pm81 °FPassing clouds.No wind84%29.86 "Hg6 mi
7:00 pm82 °FPassing clouds.No wind79%29.83 "Hg6 mi
6:30 pm82 °FPassing clouds.1 mph79%29.83 "Hg6 mi
6:00 pm84 °FPassing clouds.5 mph70%29.80 "HgN/A
5:30 pm84 °FScattered clouds.7 mph70%29.80 "HgN/A
5:00 pm86 °FScattered clouds.7 mph62%29.80 "HgN/A
4:30 pm86 °FScattered clouds.7 mph62%29.80 "HgN/A
4:00 pm90 °FScattered clouds.5 mph49%29.77 "HgN/A
3:30 pm88 °FScattered clouds.7 mph49%29.77 "HgN/A
3:00 pm88 °FScattered clouds.7 mph49%29.77 "HgN/A
2:30 pm88 °FScattered clouds.5 mph49%29.80 "HgN/A
2:00 pm88 °FScattered clouds.7 mph52%29.80 "HgN/A
1:30 pm88 °FScattered clouds.8 mph52%29.83 "HgN/A
1:00 pm88 °FScattered clouds.7 mph55%29.83 "HgN/A
12:30 pm88 °FScattered clouds.8 mph55%29.86 "HgN/A
12:00 pm88 °FScattered clouds.9 mph55%29.86 "HgN/A
11:30 am86 °FScattered clouds.7 mph62%29.89 "HgN/A
11:00 am84 °FScattered clouds.9 mph66%29.89 "HgN/A
10:30 am82 °FScattered clouds.8 mph70%29.89 "HgN/A
10:00 am82 °FScattered clouds.7 mph74%29.89 "HgN/A
9:30 am81 °FScattered clouds.8 mph79%29.89 "HgN/A
9:00 am81 °FScattered clouds.7 mph79%29.89 "HgN/A
8:30 am79 °FScattered clouds.2 mph89%29.89 "HgN/A
8:00 am77 °FScattered clouds.3 mph94%29.89 "HgN/A
7:30 am77 °FScattered clouds.3 mph100%29.86 "HgN/A
Weather by CustomWeather, © 2017

See weather overviewHow to use our weather pages